Date String (YYYY-MM-DD hh:mm:ss) UTC,Instrument flags,Ambient pressure (hPa),Sample flow (lpm),Bypass flow (lpm),Sample temperature (°C),Ambient temperature (°C),ASC tube jacket temperature (°C),LED temperature (°C),Box temperature (°C),Sample RH (%),Span deviation,Mass concentration (μg/m³),Mass concentration (μg/m³),Mass concentration (μg/m³)
DateTimeUTC,F1_M11,P_M11,Q1_M11,Q2_M11,T1_M11,T2_M11,T3_M11,T4_M11,T5_M11,U1_M11,ZSPAN_M11,X0_M11,X2_M11,X1_M11
2022-06-30 03:00:00,,0830.2,5.00,0.00,29.0,27.0,00.0,37.8,30.8,25.3,0000.0,0004.73,0002.79,0001.83
2022-06-30 03:01:00,,0830.2,5.00,0.00,29.0,27.2,00.0,37.8,30.8,25.7,0000.0,0004.74,0002.76,0001.84
2022-06-30 03:02:00,,0830.2,5.01,0.00,29.0,27.3,00.0,37.8,30.8,26.7,0000.0,0004.90,0002.82,0001.85
2022-06-30 03:03:00,,0830.3,5.00,0.00,29.0,27.5,00.0,37.8,30.9,27.1,0000.0,0005.27,0002.85,0001.86
2022-06-30 03:04:00,,0830.3,4.99,0.00,29.0,27.6,00.0,37.8,30.9,27.1,0000.0,0005.54,0002.85,0001.88
2022-06-30 03:05:00,,0830.4,5.00,0.00,29.0,27.8,00.0,37.8,31.0,27.7,0000.0,0005.68,0002.91,0001.89
2022-06-30 03:06:00,,0830.5,5.00,0.00,29.0,27.9,00.0,37.8,31.0,28.7,0000.0,0005.62,0002.87,0001.90
2022-06-30 03:07:00,,0830.4,5.00,0.00,29.1,28.1,00.0,37.8,31.1,27.0,0000.0,0005.49,0002.82,0001.90
2022-06-30 03:08:00,,0830.4,4.99,0.00,29.1,28.2,00.0,37.8,31.1,26.5,0000.0,0005.58,0002.84,0001.91
2022-06-30 03:09:00,,0830.5,5.01,0.00,29.1,28.3,00.0,37.9,31.2,26.1,0000.0,0005.60,0002.85,0001.93
2022-06-30 03:10:00,,0830.6,5.00,0.00,29.2,28.3,00.0,37.9,31.2,26.7,0000.0,0005.43,0002.79,0001.94
2022-06-30 03:11:00,,0830.6,4.99,0.00,29.2,28.2,00.0,37.9,31.2,27.5,0000.0,0005.58,0002.82,0001.99
2022-06-30 03:12:00,,0830.6,5.01,0.00,29.2,27.5,00.0,37.8,31.0,27.0,0000.0,0005.63,0002.88,0002.02
2022-06-30 03:13:00,,0830.6,4.99,0.00,29.1,27.1,00.0,37.8,30.9,25.8,0000.0,0005.82,0002.94,0002.04
2022-06-30 03:14:00,,0830.6,5.00,0.00,29.1,27.1,00.0,37.8,30.9,25.4,0000.0,0005.83,0002.91,0002.03
2022-06-30 03:15:00,,0830.6,4.99,0.00,29.0,27.2,00.0,37.8,30.9,26.1,0000.0,0005.74,0002.96,0002.03
2022-06-30 03:16:00,,0830.7,4.99,0.00,29.0,27.3,00.0,37.8,30.9,25.2,0000.0,0005.54,0002.87,0002.00
2022-06-30 03:17:00,,0830.8,5.00,0.00,29.0,27.5,00.0,37.8,30.9,26.0,0000.0,0005.41,0002.83,0001.96
2022-06-30 03:18:00,,0830.8,5.00,0.00,29.1,27.6,00.0,37.8,31.0,27.1,0000.0,0005.43,0002.84,0001.98
2022-06-30 03:19:00,,0830.8,5.00,0.00,29.1,27.8,00.0,37.8,31.0,26.7,0000.0,0005.27,0002.80,0001.99
2022-06-30 03:20:00,,0831.0,5.00,0.00,29.1,27.9,00.0,37.9,31.1,26.5,0000.0,0005.20,0002.78,0001.98
2022-06-30 03:21:00,,0831.0,5.00,0.00,29.1,28.1,00.0,37.9,31.1,27.3,0000.0,0005.25,0002.79,0001.97
2022-06-30 03:22:00,,0831.2,5.01,0.00,29.2,28.2,00.0,37.9,31.2,26.9,0000.0,0005.23,0002.79,0001.95
2022-06-30 03:23:00,,0831.2,5.00,0.00,29.2,28.3,00.0,37.9,31.2,28.0,0000.0,0005.19,0002.76,0001.93
2022-06-30 03:24:00,,0831.2,4.99,0.00,29.2,28.4,00.0,37.9,31.3,27.7,0000.0,0004.98,0002.71,0001.92
2022-06-30 03:25:00,,0831.3,5.01,0.00,29.3,28.1,00.0,37.9,31.2,27.4,0000.0,0004.84,0002.76,0001.96
2022-06-30 03:26:00,,0831.2,4.99,0.00,29.2,27.3,00.0,37.9,31.0,28.1,0000.0,0004.71,0002.79,0001.98
2022-06-30 03:27:00,,0831.2,5.00,0.00,29.1,26.7,00.0,37.8,30.8,28.0,0000.0,0004.97,0002.84,0002.01
2022-06-30 03:28:00,,0831.2,5.00,0.00,29.0,26.5,00.0,37.8,30.7,26.1,0000.0,0005.05,0002.89,0002.06
2022-06-30 03:29:00,,0831.1,4.99,0.00,29.0,26.6,00.0,37.8,30.7,25.2,0000.0,0005.01,0002.88,0002.04
2022-06-30 03:30:00,,0831.2,5.00,0.00,28.9,26.8,00.0,37.8,30.7,24.2,0000.0,0005.52,0002.83,0001.98
2022-06-30 03:31:00,,0831.2,5.00,0.00,28.9,27.0,00.0,37.8,30.8,24.7,0000.0,0005.48,0002.76,0001.92
2022-06-30 03:32:00,,0831.2,5.00,0.00,28.9,27.2,00.0,37.8,30.8,25.5,0000.0,0005.23,0002.64,0001.85
2022-06-30 03:33:00,,0831.1,5.01,0.00,28.9,27.4,00.0,37.8,30.8,25.3,0000.0,0004.93,0002.50,0001.79
2022-06-30 03:34:00,,0831.1,5.00,0.00,28.9,27.5,00.0,37.8,30.9,24.9,0000.0,0004.79,0002.41,0001.71
2022-06-30 03:35:00,,0831.1,5.00,0.00,29.0,27.7,00.0,37.8,30.9,24.4,0000.0,0004.63,0002.30,0001.63
2022-06-30 03:36:00,,0831.2,5.00,0.00,29.0,27.8,00.0,37.8,31.0,23.9,0000.0,0004.32,0002.19,0001.54
2022-06-30 03:37:00,,0831.2,5.00,0.00,29.0,27.9,00.0,37.8,31.0,23.4,0000.0,0003.98,0001.99,0001.43
2022-06-30 03:38:00,,0831.1,4.99,0.00,29.0,28.0,00.0,37.8,31.0,24.5,0000.0,0003.64,0001.85,0001.35
2022-06-30 03:39:00,,0831.0,5.01,0.00,29.1,28.1,00.0,37.8,31.1,24.2,0000.0,0003.38,0001.73,0001.26
2022-06-30 03:40:00,,0831.0,5.01,0.00,29.1,28.2,00.0,37.8,31.1,24.4,0000.0,0003.27,0001.65,0001.19
2022-06-30 03:41:00,,0830.8,5.00,0.00,29.1,28.3,00.0,37.9,31.2,23.7,0000.0,0002.60,0001.60,0001.17
2022-06-30 03:42:00,,0830.9,5.00,0.00,29.2,28.3,00.0,37.9,31.2,23.3,0000.0,0003.82,0001.58,0001.16
2022-06-30 03:43:00,,0830.9,5.00,0.00,29.2,28.4,00.0,37.9,31.2,23.7,0000.0,0004.12,0001.57,0001.17
2022-06-30 03:44:00,,0830.8,5.01,0.00,29.2,27.8,00.0,37.9,31.1,24.0,0000.0,0004.20,0001.59,0001.16
2022-06-30 03:45:00,,0831.0,5.01,0.00,29.2,27.3,00.0,37.8,31.0,24.3,0000.0,0004.16,0001.57,0001.16
2022-06-30 03:46:00,,0830.9,5.01,0.00,29.1,27.1,00.0,37.8,30.9,24.2,0000.0,0004.11,0001.56,0001.16
2022-06-30 03:47:00,,0830.8,5.00,0.00,29.1,27.2,00.0,37.8,30.9,23.3,0000.0,0004.03,0001.54,0001.17
2022-06-30 03:48:00,,0830.8,5.00,0.00,29.1,27.3,00.0,37.8,30.9,23.5,0000.0,0004.01,0001.56,0001.18
2022-06-30 03:49:00,,0830.6,5.00,0.00,29.0,27.4,00.0,37.8,30.9,23.7,0000.0,0003.95,0001.56,0001.19
2022-06-30 03:50:00,,0830.6,5.00,0.00,29.0,27.5,00.0,37.8,30.9,23.3,0000.0,0003.97,0001.57,0001.20
2022-06-30 03:51:00,,0830.6,5.00,0.00,29.1,27.6,00.0,37.8,31.0,23.2,0000.0,0004.02,0001.56,0001.22
2022-06-30 03:52:00,,0830.5,5.01,0.00,29.1,27.8,00.0,37.8,31.0,23.3,0000.0,0004.27,0001.58,0001.22
2022-06-30 03:53:00,,0830.4,5.00,0.00,29.1,27.9,00.0,37.9,31.0,23.5,0000.0,0003.26,0001.58,0001.23
2022-06-30 03:54:00,,0830.3,5.00,0.00,29.1,28.0,00.0,37.9,31.1,22.5,0000.0,0002.61,0001.55,0001.21
2022-06-30 03:55:00,,0830.3,4.99,0.00,29.1,28.0,00.0,37.9,31.1,22.5,0000.0,0002.50,0001.51,0001.19
2022-06-30 03:56:00,,0830.4,4.99,0.00,29.2,28.1,00.0,37.9,31.1,23.9,0000.0,0002.37,0001.46,0001.18
2022-06-30 03:57:00,,0830.4,5.00,0.00,29.2,28.2,00.0,37.9,31.2,24.5,0000.0,0002.36,0001.46,0001.18
2022-06-30 03:58:00,,0830.5,5.00,0.00,29.2,28.3,00.0,37.9,31.2,26.8,0000.0,0002.46,0001.51,0001.20
2022-06-30 03:59:00,,0830.5,5.01,0.00,29.2,28.3,00.0,38.0,31.2,28.7,0000.0,0002.77,0001.64,0001.27
